Overview Statistics Trail Chart Weather Telemetry Raw packets
 

This is the latest recevied weather packets stored in our database for station/object N7WGJ. If no packets are shown the sender has not sent any weather packets the latest 10 day(s).

<< 2 3 4 5 6 7 8 >>
Time Temp. Humidity Pressure Rain* Wind** Luminosity Snow
1788630684 16.67° C 79% 1018.8 hPa 0 mm - - -
1788630088 16.67° C 78% 1018.7 hPa 0 mm - - -
1788629490 16.67° C 78% 1018.7 hPa 0 mm - - -
1788628887 16.67° C 79% 1018.7 hPa 0 mm - - -
1788628303 16.11° C 83% 1018.6 hPa 0 mm - - -
1788627704 15° C 84% 1018.6 hPa 0 mm - - -
1788627098 15° C 85% 1018.6 hPa 0 mm - - -
1788626498 15° C 86% 1018.6 hPa 0 mm - - -
1788625901 15° C 89% 1018.5 hPa 0 mm - - -
1788625299 13.89° C 91% 1018.5 hPa 0 mm - - -
1788624698 12.78° C 93% 1018.4 hPa 0 mm - - -
1788624099 12.78° C 93% 1018.3 hPa 0 mm - - -
1788623487 12.22° C 94% 1018.4 hPa 0 mm - - -
1788622889 12.22° C 94% 1018.4 hPa 0 mm - - -
1788622293 11.67° C 94% 1018.5 hPa 0 mm - - -
1788621697 11.67° C 94% 1018.4 hPa 0 mm - - -
1788621095 11.67° C 95% 1018.3 hPa 0 mm - - -
1788620515 11.67° C 95% 1018.2 hPa 0 mm - - -
1788619888 11.11° C 95% 1018.2 hPa 0 mm - - -
1788619290 11.11° C 95% 1018.2 hPa 0 mm - - -
1788618686 11.11° C 95% 1018.2 hPa 0 mm - - -
1788618085 11.11° C 95% 1018.1 hPa 0 mm - - -
1788617488 11.11° C 95% 1018 hPa 0 mm - - -
1788616909 11.11° C 95% 1017.9 hPa 0 mm - - -
1788616283 11.11° C 95% 1017.8 hPa 0 mm - - -

* Rain latest hour (hover to see other rain measurements)
** Current wind speed in m/s (hover to see current wind gust speed)